Starlink 33545

operational
NORAD ID: 62101 Int'l Des: 2024-220 Owner: SPXS Country: US Constellation: starlink
LEOCIRCULAR

关于 Starlink 33545

正在加载描述...

实时位置

正在加载3D地球...

即将过境

高度历史

Altitude vs Time

uPlot chart will show altitude changes over time

两行轨道根数

1 62101U 24220P 26036.45106402 .00041293 00000-0 14999-2 0 9992
2 62101 42.9965 27.3555 0000275 264.6727 95.4093 15.27620116 68096
Epoch: Feb 5, 2026 • Age: 18 hours

当前状态

高度 488.9 km
速度 7.62 km/s
星下点 -25.23°S, 21.32°E
发射日期 Nov 25, 2024
运行时间 1.1 years
类型 internet

技术详情

分类 Payload
质量 530.00 kg
干质量 500.00 kg
总质量 530.00 kg
长度 0.30 m
直径 4.10 m
跨度 29.00 m
形状 Box + pan
制造商 SPXS
平台类型 Starlink V2MO
阶段状态 In Orbit
所有者/国家 SPXS/US

大型星座

Loading constellations...